Pueblo, CO

3:28 PM MDT on July 25, 2016 (GMT -0600)
Pueblo Memorial

Weather History for KPUB - May, 2013

Change the Weather History Date:

Monday, May 20, 2013

  Actual Average Record
Temperature  
Mean Temperature 57 °F 62 °F  
Max Temperature 71 °F 78 °F 94 °F (1970)
Min Temperature 43 °F 46 °F 33 °F (1960)
Degree Days  
Heating Degree Days 8 4  
Month to date heating degree days 177 137  
Since 1 July heating degree days 5690 5577  
Cooling Degree Days 0 1  
Month to date cooling degree days 31 11  
Year to date cooling degree days 32 13  
Growing Degree Days 7 (Base 50)    
Moisture  
Dew Point 38 °F    
Average Humidity 54    
Maximum Humidity 83    
Minimum Humidity 24    
Precipitation  
Precipitation 0.05 in 0.05 in 0.99 in (1900)
Month to date precipitation 0.73 0.98  
Year to date precipitation 1.93 3.96  
Snow  
Snow 0.00 in 0.00 in 0.20 in (2001)
Month to date snowfall 0.6 0.5  
Since 1 July snowfall 24.4 31.8  
Snow Depth 0.00 in    
Sea Level Pressure  
Sea Level Pressure 29.83 in    
Wind  
Wind Speed 7 mph (NNW)    
Max Wind Speed 30 mph    
Max Gust Speed 38 mph    
Visibility 10 miles    
Events Rain    
T = Trace of Precipitation, MM = Missing Value Source: NWS Daily Summary

Daily Weather History Graph

Daily Weather History Graph

Search for Another Location

Airport or City:

Trip Planner

Search our weather history database for the weather conditions in past years. The results will help you decide how hot, cold, wet, or windy it might be!

Date:

Astronomy

May. 20, 2013 Rise Set
Actual Time 5:42 AM MDT 8:06 PM MDT
Civil Twilight 5:12 AM MDT 8:37 PM MDT
Nautical Twilight 4:35 AM MDT 9:14 PM MDT
Astronomical Twilight 3:54 AM MDT 9:55 PM MDT
Moon 3:20 PM MDT (5/20) 2:34 AM MDT (5/20)
Length of Visible Light 15h 24m
Length of Day
14h 24m
Waxing Gibbous, 75% of the Moon is Illuminated
May 20
Waxing Gibbous
May 24
Full
May 31
Last Quarter
Jun 8
New
Jun 16
First Quarter

Hourly Weather History & Observations

Time (MDT) Temp. Windchill Dew Point Humidity Pressure Visibility Wind Dir Wind Speed Gust Speed Precip Events Conditions
12:53 AM 51.1 °F - 33.1 °F 50% 29.74 in 10.0 mi Calm Calm - N/A   Clear
1:53 AM 48.2 °F - 33.8 °F 58% 29.87 in 10.0 mi NNW 4.6 mph - N/A   Clear
2:53 AM 43.0 °F - 30.0 °F 60% 29.73 in 10.0 mi Calm Calm - N/A   Clear
3:53 AM 45.0 °F 41.8 °F 30.9 °F 58% 29.73 in 10.0 mi West 5.8 mph - N/A   Clear
4:53 AM 44.1 °F 41.5 °F 30.0 °F 58% 29.74 in 10.0 mi WSW 4.6 mph - N/A   Clear
5:53 AM 44.1 °F - 33.1 °F 65% 29.76 in 10.0 mi Calm Calm - N/A   Clear
6:53 AM 48.9 °F - 32.0 °F 52% 29.79 in 10.0 mi Calm Calm - N/A   Clear
7:53 AM 52.0 °F - 33.1 °F 49% 29.81 in 10.0 mi Calm Calm - N/A   Clear
8:53 AM 57.0 °F - 37.0 °F 47% 29.81 in 10.0 mi Calm Calm - N/A   Clear
9:53 AM 59.0 °F - 39.0 °F 48% 29.80 in 10.0 mi WSW 3.5 mph - N/A   Clear
10:53 AM 63.0 °F - 37.0 °F 38% 29.80 in 10.0 mi Variable 3.5 mph - N/A   Partly Cloudy
11:53 AM 66.0 °F - 36.0 °F 33% 29.78 in 10.0 mi Variable 3.5 mph - N/A   Mostly Cloudy
12:53 PM 66.9 °F - 32.0 °F 27% 29.77 in 10.0 mi Calm Calm - N/A   Clear
1:53 PM 68.0 °F - 32.0 °F 26% 29.76 in 10.0 mi East 8.1 mph - N/A   Mostly Cloudy
2:53 PM 68.0 °F - 30.9 °F 25% 29.78 in 10.0 mi NNE 10.4 mph 19.6 mph N/A   Scattered Clouds
3:53 PM 57.0 °F - 45.0 °F 64% 29.85 in 3.0 mi West 29.9 mph 38.0 mph 0.01 in Rain Light Rain
4:53 PM 57.0 °F - 44.1 °F 62% 29.83 in 10.0 mi South 17.3 mph - 0.03 in   Mostly Cloudy
5:53 PM 60.1 °F - 41.0 °F 49% 29.84 in 10.0 mi East 9.2 mph - N/A   Clear
6:53 PM 62.1 °F - 39.9 °F 44% 29.86 in 10.0 mi NNE 5.8 mph - N/A   Overcast
7:16 PM 57.2 °F - 42.8 °F 59% 29.97 in 10.0 mi WNW 13.8 mph 23.0 mph N/A   Overcast
7:53 PM 53.6 °F - 46.4 °F 77% 29.99 in 8.0 mi NE 20.7 mph 28.8 mph N/A Rain Light Rain
8:53 PM 54.0 °F - 46.0 °F 75% 29.91 in 10.0 mi North 9.2 mph - 0.00 in   Overcast
9:53 PM 54.0 °F - 46.0 °F 75% 29.93 in 10.0 mi NNE 12.7 mph - 0.00 in   Overcast
10:53 PM 53.1 °F - 46.0 °F 77% 29.92 in 10.0 mi NE 6.9 mph - N/A   Overcast
11:53 PM 52.0 °F - 46.0 °F 80% 29.92 in 10.0 mi WSW 4.6 mph - N/A   Overcast